This is the latest recevied weather packets stored in our database for station/object AI5BL. If no packets are shown the sender has not sent any weather packets the latest 10 day(s).
| Time | Temp. | Humidity | Pressure | Rain* | Wind** | Luminosity | Snow |
|---|---|---|---|---|---|---|---|
| 1777838612 | 23.89° C | 41% | 1021.7 hPa | 0 mm | - | 99 W/m² | - |
| 1777838310 | 25° C | 41% | 1021.9 hPa | 0 mm | - | 621 W/m² | - |
| 1777838006 | 23.89° C | 44% | 1021.8 hPa | 0 mm | - | 725 W/m² | - |
| 1777837704 | 23.89° C | 42% | 1021.9 hPa | 0 mm | - | 738 W/m² | - |
| 1777837400 | 23.89° C | 42% | 1022.1 hPa | 0 mm | - | 751 W/m² | - |
| 1777837096 | 24.44° C | 39% | 1022.2 hPa | 0 mm | - | 751 W/m² | - |
| 1777836792 | 25° C | 41% | 1022.5 hPa | 0 mm | - | 757 W/m² | - |
| 1777836488 | 24.44° C | 41% | 1022.4 hPa | 0 mm | - | 785 W/m² | - |
| 1777836183 | 24.44° C | 42% | 1022.6 hPa | 0 mm | - | 828 W/m² | - |
| 1777835880 | 23.89° C | 43% | 1022.5 hPa | 0 mm | - | 840 W/m² | - |
| 1777835577 | 23.33° C | 41% | 1022.6 hPa | 0 mm | - | 820 W/m² | - |
| 1777835274 | 24.44° C | 39% | 1022.8 hPa | 0 mm | - | 816 W/m² | - |
| 1777834971 | 24.44° C | 37% | 1022.7 hPa | 0 mm | - | 825 W/m² | - |
| 1777834668 | 23.89° C | 46% | 1022.9 hPa | 0 mm | - | 825 W/m² | - |
| 1777834364 | 24.44° C | 42% | 1022.9 hPa | 0 mm | - | 851 W/m² | - |
| 1777834058 | 23.89° C | 42% | 1023 hPa | 0 mm | - | 910 W/m² | - |
| 1777833755 | 23.89° C | 41% | 1022.9 hPa | 0 mm | - | 854 W/m² | - |
| 1777833451 | 24.44° C | 37% | 1023 hPa | 0 mm | - | 839 W/m² | - |
| 1777833149 | 23.89° C | 44% | 1022.9 hPa | 0 mm | - | 834 W/m² | - |
| 1777832846 | 23.89° C | 47% | 1023.2 hPa | 0 mm | - | 840 W/m² | - |
| 1777832545 | 23.33° C | 39% | 1023.3 hPa | 0 mm | - | 851 W/m² | - |
| 1777832241 | 22.78° C | 41% | 1023.5 hPa | 0 mm | - | 327 W/m² | - |
| 1777831939 | 23.89° C | 44% | 1023.4 hPa | 0 mm | - | 577 W/m² | - |
| 1777831635 | 24.44° C | 41% | 1023.3 hPa | 0 mm | - | 883 W/m² | - |
| 1777831334 | 23.89° C | 39% | 1023.5 hPa | 0 mm | - | 852 W/m² | - |
* Rain latest hour (hover to see other rain measurements)
** Current wind speed in m/s (hover to see current wind gust speed)